Flag for U.S.A. Weather past 2 weeks in Charleston, West Virginia, U.S.A.

Now
42 °F

Passing clouds.


Feels Like: 42 °F
Forecast: 42 / 76 °F
Wind: No wind

Location: Yeager Airport


UV Index: 5 (Moderate)

Visibility: 10 mi


Pressure: 30.26 "Hg

Humidity: 92%

Dew point: 40 °F

Location of CharlestonLocation

Historic Weather in Charleston

°F

Charleston temperature yesterday

Maximum temperature yesterday: 71 °F (at 3:54 PM)
Minimum temperature yesterday: 46 °F (at 6:54 AM)
Average temperature yesterday: 59 °F

Past Weeks' High & Low Weather Summary

 TemperatureHumidityPressure
High86 °F (Apr 13, 3:54 PM)100% (Apr 6, 4:54 AM)30.45 "Hg (Apr 6, 4:54 AM)
Low26 °F (Apr 16, 6:54 AM)17% (Apr 13, 6:54 PM)29.42 "Hg (Apr 7, 7:54 PM)
Average57 °F52%30.03 "Hg
* Reported Apr 5 6:54 AM — Apr 20 6:54 AM, Charleston, Weather by CustomWeather, © 2014

Note: Actual official high and low records may vary slightly from our data, if they occured in-between our weather recording intervals... More about our weather records

Advertising

Historic Weather Conditions — Data for Previous 24 hours

 ConditionsComfort  
Time TempWeatherWind HumidityBarometerVisibility
6:54 AM
Apr 20
42 °FPassing clouds.No wind92%30.26 "Hg10 mi
5:54 AM45 °FClear.No wind76%30.23 "Hg4 mi
4:54 AM46 °FClear.No wind79%30.22 "Hg10 mi
3:54 AM47 °FClear.No wind74%30.21 "Hg10 mi
2:54 AM49 °FClear.No wind66%30.20 "Hg10 mi
1:54 AM51 °FPassing clouds.3 mph59%30.21 "Hg10 mi
12:54 AM54 °FPassing clouds.5 mph53%30.22 "Hg10 mi
11:54 PM
Apr 19
56 °FPassing clouds.7 mph44%30.21 "Hg10 mi
10:54 PM57 °FPassing clouds.3 mph46%30.23 "Hg10 mi
9:54 PM61 °FPassing clouds.5 mph35%30.22 "Hg10 mi
8:54 PM63 °FScattered clouds.6 mph33%30.20 "Hg10 mi
7:54 PM65 °FPartly sunny.8 mph32%30.18 "Hg10 mi
6:54 PM67 °FPartly sunny.8 mph29%30.18 "Hg10 mi
5:54 PM69 °FPartly sunny.7 mph30%30.17 "Hg10 mi
4:54 PM70 °FPartly sunny.7 mph29%30.17 "Hg10 mi
3:54 PM71 °FScattered clouds.8 mph29%30.18 "Hg10 mi
2:54 PM70 °FScattered clouds.12 mph29%30.19 "Hg10 mi
1:54 PM70 °FScattered clouds.13 mph28%30.21 "Hg10 mi
12:54 PM67 °FScattered clouds.14 mph31%30.21 "Hg10 mi
11:54 AM66 °FScattered clouds.12 mph36%30.24 "Hg10 mi
10:54 AM63 °FScattered clouds.5 mph41%30.24 "Hg10 mi
9:54 AM58 °FScattered clouds.7 mph50%30.24 "Hg10 mi
8:54 AM50 °FPassing clouds.3 mph80%30.24 "Hg10 mi
Weather by CustomWeather, © 2014

See weather overview